Knox, IN

1:27 AM CDT on September 29, 2016 (GMT -0500)
Starke County

Weather History for KOXI - May, 2012

Change the Weather History Date:

Wednesday, May 16, 2012

  Actual Average (KVPZ) Record (KVPZ)
Temperature  
Mean Temperature 56 °F 59 °F  
Max Temperature 66 °F 70 °F 87 °F (2001)
Min Temperature 47 °F 48 °F 35 °F (2014)
Degree Days  
Heating Degree Days 8 7  
Month to date heating degree days 142  
Since 1 July heating degree days 6201  
Cooling Degree Days 0 1  
Month to date cooling degree days 12  
Year to date cooling degree days 17  
Growing Degree Days 6 (Base 50)    
Moisture  
Dew Point 32 °F    
Average Humidity 37    
Maximum Humidity 55    
Minimum Humidity 28    
Precipitation  
Precipitation 0.00 in 0.12 in 0.54 in (2001)
Month to date precipitation 2.01  
Year to date precipitation 11.19  
Sea Level Pressure  
Sea Level Pressure 30.08 in    
Wind  
Wind Speed 13 mph (NNE)    
Max Wind Speed 18 mph    
Max Gust Speed 25 mph    
Visibility 10 miles    
Events      
T = Trace of Precipitation, MM = Missing Value Source: NWS Daily Summary

Daily Weather History Graph

Daily Weather History Graph

Search for Another Location

Airport or City:

Trip Planner

Search our weather history database for the weather conditions in past years. The results will help you decide how hot, cold, wet, or windy it might be!

Date:

Astronomy

May. 16, 2012 Rise Set
Actual Time 5:26 AM CDT 8:00 PM CDT
Civil Twilight 4:54 AM CDT 8:31 PM CDT
Nautical Twilight 4:15 AM CDT 9:11 PM CDT
Astronomical Twilight 3:31 AM CDT 9:56 PM CDT
Moon 2:58 AM CDT (5/16) 4:13 PM CDT (5/16)
Length of Visible Light 15h 36m
Length of Day
14h 33m
Waning Crescent, 16% of the Moon is Illuminated
May 16
Waning Crescent
May 20
New
May 28
First Quarter
Jun 4
Full
Jun 11
Last Quarter

Hourly Weather History & Observations

Time (CDT) Temp. Dew Point Humidity Pressure Visibility Wind Dir Wind Speed Gust Speed Precip Events Conditions
12:15 AM - - N/A% - - North - - N/A   Unknown
12:35 AM - - N/A% - - North - - N/A   Unknown
12:55 AM - - N/A% - - North - - N/A   Unknown
1:15 AM - - N/A% - - North - - N/A   Unknown
1:35 AM - - N/A% - - North - - N/A   Unknown
1:55 AM - - N/A% - - North - - N/A   Unknown
2:15 AM - - N/A% - - North - - N/A   Unknown
2:35 AM - - N/A% - - North - - N/A   Unknown
2:55 AM - - N/A% - - North - - N/A   Unknown
3:15 AM - - N/A% - - North - - N/A   Unknown
3:35 AM - - N/A% - - North - - N/A   Unknown
3:55 AM - - N/A% - - North - - N/A   Unknown
4:15 AM - - N/A% - - North - - N/A   Unknown
4:35 AM - - N/A% - - North - - N/A   Unknown
4:55 AM - - N/A% - - North - - N/A   Unknown
5:15 AM - - N/A% - - North - - N/A   Unknown
5:35 AM - - N/A% - - North - - N/A   Unknown
5:55 AM - - N/A% - - North - - N/A   Unknown
6:15 AM - - N/A% - - North - - N/A   Unknown
6:35 AM - - N/A% - - North - - N/A   Unknown
6:55 AM - - N/A% - - North - - N/A   Unknown
7:15 AM - - N/A% - - North - - N/A   Unknown
7:35 AM - - N/A% - - North - - N/A   Unknown
7:55 AM - - N/A% - - North - - N/A   Unknown
8:15 AM - - N/A% - - North - - N/A   Unknown
8:35 AM - - N/A% - - North - - N/A   Unknown
8:55 AM - - N/A% - - North - - N/A   Unknown
9:15 AM - - N/A% - - North - - N/A   Unknown
9:35 AM - - N/A% - - North - - N/A   Unknown
9:55 AM - - N/A% 30.06 in 10.0 mi NE 13.8 mph 21.9 mph N/A   Unknown
10:15 AM - - N/A% 30.06 in 10.0 mi NNE 15.0 mph 20.7 mph N/A   Clear
10:35 AM 62.6 °F 31.6 °F 31% 30.07 in 10.0 mi NNE 12.7 mph 17.3 mph N/A   Clear
10:55 AM - - N/A% 30.07 in - NNE 16.1 mph 20.7 mph N/A   Clear
11:15 AM - - N/A% 30.07 in 10.0 mi NNE 16.1 mph 23.0 mph N/A   Clear
11:35 AM - - N/A% 30.08 in 10.0 mi NNE 9.2 mph 20.7 mph N/A   Clear
11:55 AM 64.8 °F 32.0 °F 29% 30.07 in 10.0 mi North 13.8 mph 19.6 mph N/A   Clear
12:15 PM 64.9 °F 32.0 °F 29% 30.07 in 10.0 mi North 12.7 mph 19.6 mph N/A   Clear
12:35 PM 65.1 °F 32.2 °F 29% 30.07 in 10.0 mi ENE 8.1 mph 17.3 mph N/A   Clear
12:55 PM 65.5 °F 32.2 °F 29% 30.07 in 10.0 mi North 9.2 mph 23.0 mph N/A   Clear
1:15 PM 66.2 °F 33.6 °F 30% 30.06 in 10.0 mi North 17.3 mph 20.7 mph N/A   Clear
1:35 PM 66.7 °F 32.5 °F 28% 30.07 in 10.0 mi NNE 10.4 mph 18.4 mph N/A   Clear
1:55 PM 66.6 °F 34.9 °F 31% 30.06 in 10.0 mi North 16.1 mph 21.9 mph N/A   Clear
2:15 PM 66.4 °F 37.4 °F 34% 30.06 in 10.0 mi North 15.0 mph 20.7 mph N/A   Clear
2:35 PM 66.0 °F 36.9 °F 34% 30.06 in 10.0 mi North 12.7 mph 23.0 mph N/A   Clear
2:55 PM 66.2 °F 36.0 °F 33% 30.06 in 10.0 mi North 16.1 mph 19.6 mph N/A   Clear
3:15 PM 65.8 °F 34.2 °F 31% 30.05 in 10.0 mi North 18.4 mph 25.3 mph N/A   Clear
3:35 PM 65.1 °F 32.9 °F 30% 30.06 in 10.0 mi North 17.3 mph 25.3 mph N/A   Clear
3:55 PM 64.4 °F 32.7 °F 31% 30.06 in 10.0 mi North 17.3 mph 24.2 mph N/A   Clear
4:35 PM 64.0 °F 32.0 °F 30% 30.07 in 10.0 mi North 17.3 mph 21.9 mph N/A   Clear
4:55 PM 63.0 °F 31.5 °F 31% 30.08 in 10.0 mi North 16.1 mph 25.3 mph N/A   Clear
5:15 PM 62.2 °F 30.9 °F 31% 30.08 in 10.0 mi North 16.1 mph 24.2 mph N/A   Clear
5:35 PM 61.3 °F 29.8 °F 30% 30.08 in 10.0 mi North 13.8 mph - N/A   Clear
5:55 PM 60.6 °F 30.4 °F 32% 30.08 in 10.0 mi North 17.3 mph 23.0 mph N/A   Clear
6:35 PM 58.6 °F 29.1 °F 33% 30.08 in 10.0 mi North 15.0 mph - N/A   Clear
6:55 PM 57.9 °F 28.9 °F 33% 30.09 in 10.0 mi North 16.1 mph - N/A   Clear
7:15 PM 57.0 °F 28.0 °F 33% 30.09 in 10.0 mi North 15.0 mph - N/A   Clear
7:35 PM 55.9 °F 28.2 °F 35% 30.10 in 10.0 mi North 10.4 mph - N/A   Clear
7:55 PM 54.3 °F 28.6 °F 37% 30.10 in 10.0 mi North 8.1 mph - N/A   Clear
8:15 PM 52.3 °F 30.0 °F 42% 30.10 in 10.0 mi North 8.1 mph - N/A   Clear
8:35 PM 50.9 °F 30.6 °F 46% 30.10 in 10.0 mi North 6.9 mph - N/A   Clear
9:15 PM 50.2 °F 31.6 °F 49% 30.11 in 10.0 mi NNE 4.6 mph - N/A   Clear
9:35 PM 50.2 °F 30.9 °F 48% 30.12 in 10.0 mi Calm Calm - N/A   Clear
9:55 PM 50.7 °F 30.9 °F 47% 30.12 in 10.0 mi Calm Calm - N/A   Clear
10:15 PM 50.2 °F 31.6 °F 49% 30.13 in 10.0 mi NNE 3.5 mph - N/A   Clear
10:35 PM 49.5 °F 32.2 °F 51% 30.13 in 10.0 mi NNE 4.6 mph - N/A   Clear
10:55 PM 47.8 °F 31.6 °F 53% 30.13 in 10.0 mi NE 4.6 mph - N/A   Clear
11:15 PM 47.3 °F 31.6 °F 55% 30.12 in 10.0 mi NE 5.8 mph - N/A   Clear
11:35 PM 47.3 °F 31.8 °F 55% 30.12 in 10.0 mi NE 5.8 mph - N/A   Clear
11:55 PM 48.2 °F 31.8 °F 53% 30.12 in 10.0 mi NE 6.9 mph - N/A   Clear